Zurück zum Katalog

STARLINK-4520

AktivKommunikationVLEO
NORAD 53400·PAYLOAD·🇺🇸 United States

Gestartet Aug 10, 2022 von Cape Canaveral Space Force Station

Loading…

Nächste Überflüge (nächste 24 Stunden)

TLE

AktuellSource: CelesTrak SupGP

Epoche: Sep 15, 2026, 02:32 UTC

1 53400C 22097N   26258.10604167  .00050898  00000+0  14564-2 0  2589
2 53400  53.1604 346.9455 0001142  88.3376 183.6657 15.35369104    16

Verfolge STARLINK-4520 in Echtzeit mit AllMySat

Download on the App Store